Weather Roundup
Issued by NWS Corpus Christi, TX

Home | Current Version | Previous Version | Text Only | Print | Product List | Glossary On
Versions: 1 2 3 4 5 6 7 8 9 10 11 12 13 14 15 16 17 18 19 20 21 22 23 24 25 26 27 28 29 30 31 32 33 34 35 36 37 38 39 40 41 42 43 44 45 46 47 48 49 50
000
ASUS44 KCRP 251810
HRRCRP

SOUTH TEXAS REGIONAL WEATHER ROUNDUP
NATIONAL WEATHER SERVICE CORPUS CHRISTI TX
100 PM CDT SUN SEP 25 2016


TXZ229>244-251900-
...CORPUS CHRISTI AREA OBSERVATIONS...

CITY           SKY/WX    TMP DP  RH WIND       PRES   REMARKS
CORPUS CHRISTI CLOUDY    86  77  74 SE14      29.93F HX  97
NAS CORPUS CHR CLOUDY    84  75  74 S10       29.94F HX  92
ROCKPORT       CLOUDY    84  74  71 S7        29.93F HX  91
KINGSVILLE NAS PTSUNNY   94  76  55 SE12G23   29.91F HX 106
ALICE          CLOUDY    91  71  51 SE18G24   29.92F HX  97
FALFURRIAS     CLOUDY    93  71  49 SE13      29.91F HX  99
$$

...VICTORIA AREA OBSERVATIONS...

CITY           SKY/WX    TMP DP  RH WIND       PRES   REMARKS
VICTORIA       MOSUNNY   86  74  67 SE12      29.96F HX  94
BEEVILLE       FAIR      90  77  65 S14G23    29.93F HX 102
PLEASANTON     SUNNY     90  71  53 SE14      29.95F HX  95
SAN ANTONIO    TSTM      84  72  67 S8        29.97F
$$

...LAREDO AREA OBSERVATIONS...

CITY           SKY/WX    TMP DP  RH WIND       PRES   REMARKS
LAREDO         CLOUDY    93  70  46 SE15G21   29.91F HX  99
COTULLA        CLOUDY    92  68  45 S10       29.93F HX  96
DEL RIO        LGT RAIN  71  70  96 CALM      29.99R
MCALLEN        PTSUNNY  100  71  39 SE20G32   29.90F HX 108
HEBBRONVILLE   MOSUNNY   91  68  46 S15G22    29.93F HX  95
$$

...OTHER TEXAS OBSERVATIONS...

CITY           SKY/WX    TMP DP  RH WIND       PRES   REMARKS
BROWNSVILLE    MOSUNNY   94  73  50 SE21G31   29.92F HX 103
HOUSTON        PTSUNNY   86  74  67 S6        29.98F HX  94
COL. STATION   MOSUNNY   88  74  63 S8        29.96F HX  96
AUSTIN         TSTM      81  74  79 NE7       29.99S
WACO           CLOUDY    74  73  97 N10       30.02S
FORT WORTH     CLOUDY    76  71  85 N7        30.02F
WICHITA FALLS  CLOUDY    74  67  78 NE8       30.10R
LUBBOCK        CLOUDY    65  49  56 NE25G38   30.21R
EL PASO        PTSUNNY   77  33  20 NE16      30.15S
$$

...MARINE OBSERVATIONS...

STATION/POSITION TIME  SKY/WX   TEMP    WIND        PRES    VSBY  WAVE   SWELL
                                AIR SEA DIR/SP/G                  HT/PER HT/PER
                 (UTC)          (F)     (DEG/KT/KT) (MB)    (MI)  (FT/S) (FT/S)
PORT ARANSAS     1800            82 85  140/ 10/ 11 1013.9F
BUOY 90 E PORT A 1750            84 86  130/ 17/ 21 1014.4F         3/ 5
BUOY 45 SE BAFFI 1750            86 86  150/ 16/ 17 1013.3F         4/ 6
BUOY 200 E PT IS 1750            84 87   90/ 14/ 16 1013.9F         2/ 5
BUOY 15 E GALVES 1750            78 85  330/  8/ 12 1015.9S         2/ 5   2/ 5
$$




USA.gov is the U.S. government's official web portal to all federal, state and local government web resources and services.